Regional Weather Roundup
Issued by NWS Bismarck, ND

Home | Current Version | Previous Version | Text Only | Print | Product List | Glossary On
Versions: 1 2 3 4 5 6 7 8 9 10 11 12 13 14 15 16 17 18 19 20 21 22 23 24 25 26 27 28 29 30 31 32 33 34 35 36 37 38 39 40 41 42 43 44 45 46 47 48 49 50
000
ASUS43 KBIS 231810
RWRBIS

NWR BROADCAST TEXT
NATIONAL WEATHER SERVICE BISMARCK ND
1200 PM CST FRI FEB 23 2018

NOTE: "FAIR" INDICATES FEW OR NO CLOUDS BELOW 12,000 FEET WITH NO
SIGNIFICANT WEATHER AND/OR OBSTRUCTIONS TO VISIBILITY.


CITY           SKY/WX    TMP DP  RH WIND       PRES   REMARKS
WILLISTON      FAIR       2  -5  72 SW10      30.21F WCI -14
MINOT          FAIR      14   5  67 SW15      30.18F WCI  -1
MINOT AFB      SUNNY     14   6  71 W13       30.17S WCI  -1
BISMARCK       FAIR      14   3  61 W8        30.27S WCI   3
DICKINSON      FAIR       9  -2  61 W6        30.16S WCI  -1
GARRISON         N/A      8   4  83 W8        30.22R WCI  -4
HETTINGER ARPT   N/A      5  -4  66 W8        30.20S WCI  -8
JAMESTOWN      FAIR      12   5  73 NW13      30.22R WCI  -3
CARRINGTON     FAIR       9   5  85 NW10      30.23S WCI  -6
HAZEN            N/A      5   3  92 SW10      30.26F WCI -10
LINTON           N/A     10   1  67 NW8       30.27S WCI  -1
MANDAN         FAIR       9   3  78 NW14      30.24S WCI  -8
OAKES            N/A     12   5  73 NW9       30.25R WCI   0
RUGBY          FAIR       5   3  92 W12       30.20S WCI -11
STANLEY        FAIR       7   5  92 W12       30.18F WCI  -9
TIOGA          CLOUDY     3   1  92 W8        30.18S WCI -10
WATFORD CITY   FAIR       3  -2  78 SW12      30.20F WCI -13
$$

CITY           SKY/WX    TMP DP  RH WIND       PRES   REMARKS
GRAND FORKS    FAIR      14   6  70 NW14      30.21R WCI  -1
GRAND FORKS AF FAIR      15   5  64 NW14      30.20S WCI   0
DEVILS LAKE    FAIR       8   3  80 W15       30.20R WCI  -9
FARGO          FAIR      17   8  67 W12       30.23R WCI   4
CANDO          FAIR      10   3  72 W14       30.20S WCI  -5
CAVALIER         N/A     14   3  62 W7        30.19S WCI   4
GRAFTON        FAIR      14   3  62 NW9       30.22R WCI   2
GWINNER          N/A     16   9  73 W15       30.23S WCI   1
LANGDON        CLOUDY    10   5  79 W13       30.14F WCI  -5
ROLLA          FAIR      10   3  72 CALM      30.13S
WALHALLA       FAIR      14   3  62 W8        30.18S WCI   3
$$

CITY           SKY/WX    TMP DP  RH WIND       PRES   REMARKS
ABERDEEN       SUNNY     20  11  68 W6        30.27R WCI  12
MOBRIDGE       SUNNY     12   2  64 W7        30.25R WCI   1
BUFFALO          N/A      1  -6  72 SE6       30.09S WCI -10
RAPID CITY     SUNNY      9   3  77 SE5       30.18F WCI   1
GLASGOW        MOSUNNY   -4 -10  75 E12       30.12F WCI -22
SIDNEY         SUNNY      1  -7  68 SW12      30.23F WCI -16
WOLF POINT     SUNNY     -2 -11  65 CALM      30.19F
GLENDIVE       SUNNY     -2  -9  72 S12       30.20F WCI -20
MILES CITY     SUNNY     -6 -12  75 S10       30.18F WCI -24
BAKER          SUNNY      2  -3  80 CALM      30.16F
$$

CITY           SKY/WX    TMP DP  RH WIND       PRES   REMARKS
BILLINGS       MOSUNNY    6  -3  66 SW10      30.07F WCI  -9
GREAT FALLS    SUNNY     17   7  64 SW28G35   29.96F WCI  -2
REGINA         MOSUNNY   12   7  79 S8        30.08F WCI   1
ESTEVAN        CLOUDY    14   7  73 SW13      30.14F WCI   0
$$




USA.gov is the U.S. government's official web portal to all federal, state and local government web resources and services.